Weather History for North Wilkesboro, NC

Change the Weather History Date:

Sunday, April 28, 2013

  Actual Average Record
Temperature  
Mean Temperature 52 °F -  
Max Temperature 53 °F 73 °F 94 °F (1989)
Min Temperature 50 °F 43 °F 30 °F (1967)
Degree Days  
Heating Degree Days 14    
Growing Degree Days 2 (Base 50)    
Moisture  
Dew Point 51 °F    
Average Humidity 100    
Maximum Humidity 100    
Minimum Humidity 94    
Precipitation  
Precipitation 0.84 in - - ()
Sea Level Pressure  
Sea Level Pressure 30.22 in    
Wind  
Wind Speed 1 mph (ENE)    
Max Wind Speed 6 mph    
Max Gust Speed -    
Visibility 4 miles    
Events Rain    
Averages and records for this station are not official NWS values.
T = Trace of Precipitation, MM = Missing Value Source: NWS Daily Summary

Daily Weather History Graph

Daily Weather History Graph

Search for Another Location

Airport:

Trip Planner

Search our weather history database for the weather conditions in past years. The results will help you decide how hot, cold, wet, or windy it might be!

Date:

Astronomy

Apr. 28, 2013 Rise Set
Actual Time 6:34 AM EDT 8:09 PM EDT
Civil Twilight 6:07 AM EDT 8:37 PM EDT
Nautical Twilight 5:34 AM EDT 9:10 PM EDT
Astronomical Twilight 4:59 AM EDT 9:44 PM EDT
Moon 11:35 PM EDT (4/28) 8:53 AM EDT (4/28)
Length of Visible Light 14h 29m
Length of Day
13h 35m
Waning Gibbous, 89% of the Moon is Illuminated
Apr 28
Waning Gibbous
May 2
Last Quarter
May 9
New
May 18
First Quarter
May 25
Full

Hourly Weather History & Observations

Time (EDT) Temp. Dew Point Humidity Pressure Visibility Wind Dir Wind Speed Gust Speed Precip Events Conditions
12:15 AM 51.8 °F 51.8 °F 100% 30.31 in 3.0 mi Calm Calm - N/A   Overcast
12:35 AM 51.8 °F 51.8 °F 100% 30.31 in 5.0 mi Calm Calm - N/A   Overcast
12:55 AM 51.8 °F 51.8 °F 100% 30.31 in 5.0 mi Calm Calm - N/A   Overcast
1:15 AM 51.8 °F 51.8 °F 100% 30.31 in 5.0 mi Calm Calm - N/A   Overcast
1:35 AM 51.8 °F 51.8 °F 100% 30.30 in 5.0 mi Calm Calm - N/A   Overcast
2:15 AM 51.8 °F 51.8 °F 100% 30.29 in 4.0 mi Calm Calm - 0.01 in   Overcast
2:35 AM 51.8 °F 51.8 °F 100% 30.28 in 2.5 mi Calm Calm - 0.01 in   Overcast
2:55 AM 50.0 °F 50.0 °F 100% 30.27 in 1.8 mi Calm Calm - 0.01 in   Overcast
3:15 AM 50.0 °F 50.0 °F 100% 30.26 in 5.0 mi Calm Calm - N/A   Light Drizzle
3:35 AM 51.8 °F 51.8 °F 100% 30.26 in 4.0 mi Calm Calm - N/A   Overcast
3:55 AM 50.0 °F 50.0 °F 100% 30.26 in 1.8 mi Calm Calm - N/A   Overcast
4:15 AM 50.0 °F 50.0 °F 100% 30.27 in 3.0 mi Calm Calm - N/A   Overcast
4:35 AM 50.0 °F 50.0 °F 100% 30.27 in 1.8 mi Calm Calm - N/A Rain Rain
4:55 AM 50.0 °F 50.0 °F 100% 30.27 in 1.2 mi Calm Calm - N/A   Overcast
5:15 AM 50.0 °F 50.0 °F 100% 30.27 in 0.8 mi Calm Calm - N/A   Overcast
5:35 AM 50.0 °F 50.0 °F 100% 30.25 in 1.2 mi Calm Calm - N/A   Overcast
5:55 AM 50.0 °F 50.0 °F 100% 30.26 in 0.8 mi Calm Calm - N/A   Overcast
6:15 AM 50.0 °F 50.0 °F 100% 30.27 in 1.0 mi Calm Calm - 0.01 in   Overcast
6:35 AM 50.0 °F 50.0 °F 100% 30.27 in 1.0 mi Calm Calm - 0.01 in   Overcast
7:15 AM 50.0 °F 50.0 °F 100% 30.27 in 1.0 mi Calm Calm - N/A   Light Drizzle
7:35 AM 50.0 °F 50.0 °F 100% 30.27 in 2.0 mi Calm Calm - N/A   Overcast
7:55 AM 51.8 °F 51.8 °F 100% 30.27 in 2.5 mi NE 3.5 mph - N/A   Overcast
8:15 AM 51.8 °F 51.8 °F 100% 30.28 in 2.0 mi NNE 3.5 mph - N/A Rain Light Rain
8:35 AM 51.8 °F 51.8 °F 100% 30.27 in 3.0 mi NE 4.6 mph - N/A   Overcast
9:15 AM 51.8 °F 51.8 °F 100% 30.27 in 3.0 mi NE 4.6 mph - N/A Rain Light Rain
9:35 AM 51.8 °F 51.8 °F 100% 30.28 in 4.0 mi Calm Calm - 0.01 in Rain Light Rain
9:55 AM 51.8 °F 51.8 °F 100% 30.28 in 4.0 mi North 4.6 mph - 0.03 in Rain Light Rain
10:15 AM 51.8 °F 51.8 °F 100% 30.28 in 4.0 mi North 5.8 mph - 0.02 in Rain Rain
10:35 AM 51.8 °F 51.8 °F 100% 30.27 in 5.0 mi NNE 5.8 mph - 0.02 in   Light Drizzle
10:55 AM 51.8 °F 51.8 °F 100% 30.27 in 5.0 mi NE 3.5 mph - 0.03 in Rain Light Rain
11:15 AM 51.8 °F 51.8 °F 100% 30.28 in 3.0 mi Calm Calm - N/A Rain Rain
11:35 AM 51.8 °F 51.8 °F 100% 30.29 in 2.0 mi Calm Calm - 0.09 in Rain Rain
11:55 AM 51.8 °F 51.8 °F 100% 30.28 in 3.0 mi Calm Calm - 0.12 in Rain Light Rain
12:15 PM 51.8 °F 51.8 °F 100% 30.26 in 3.0 mi Calm Calm - 0.02 in Rain Rain
12:35 PM 51.8 °F 51.8 °F 100% 30.26 in 5.0 mi Calm Calm - 0.05 in Rain Light Rain
12:55 PM 51.8 °F 51.8 °F 100% 30.27 in 4.0 mi Calm Calm - 0.08 in Rain Rain
1:15 PM 51.8 °F 51.8 °F 100% 30.27 in 2.5 mi Calm Calm - 0.06 in Rain Rain
1:35 PM 51.8 °F 51.8 °F 100% 30.25 in 2.0 mi Calm Calm - 0.16 in Rain Rain
1:55 PM 51.8 °F 51.8 °F 100% 30.25 in 3.0 mi Calm Calm - 0.22 in Rain Light Rain
2:15 PM 51.8 °F 51.8 °F 100% 30.24 in 3.0 mi NNE 3.5 mph - 0.05 in Rain Rain
2:35 PM 51.8 °F 51.8 °F 100% 30.23 in 4.0 mi NE 4.6 mph - 0.07 in Rain Light Rain
2:55 PM 51.8 °F 51.8 °F 100% 30.22 in 4.0 mi NE 3.5 mph - 0.11 in Rain Rain
3:15 PM 51.8 °F 51.8 °F 100% 30.22 in 5.0 mi Calm Calm - 0.02 in Rain Light Rain
3:35 PM 51.8 °F 51.8 °F 100% 30.19 in 7.0 mi ENE 4.6 mph - 0.03 in Rain Light Rain
3:55 PM 51.8 °F 51.8 °F 100% 30.19 in 7.0 mi ENE 3.5 mph - 0.04 in Rain Light Rain
4:15 PM 51.8 °F 51.8 °F 100% 30.18 in 7.0 mi ENE 3.5 mph - 0.01 in Rain Light Rain
4:35 PM 51.8 °F 51.8 °F 100% 30.18 in 5.0 mi East 4.6 mph - 0.02 in Rain Light Rain
4:55 PM 51.8 °F 51.8 °F 100% 30.17 in 7.0 mi East 3.5 mph - 0.04 in Rain Light Rain
5:15 PM 51.8 °F 51.8 °F 100% 30.17 in 10.0 mi East 3.5 mph - N/A Rain Light Rain
5:35 PM 51.8 °F 51.8 °F 100% 30.15 in 10.0 mi ESE 3.5 mph - 0.01 in   Drizzle
5:55 PM 51.8 °F 51.8 °F 100% 30.15 in 5.0 mi SE 3.5 mph - 0.01 in   Drizzle
6:15 PM 51.8 °F 51.8 °F 100% 30.15 in 7.0 mi Calm Calm - N/A Rain Light Rain
6:35 PM 51.8 °F 51.8 °F 100% 30.14 in 7.0 mi Calm Calm - 0.01 in Rain Light Rain
6:55 PM 53.6 °F 51.8 °F 94% 30.15 in 10.0 mi Calm Calm - 0.02 in Rain Rain
7:15 PM 53.6 °F 51.8 °F 94% 30.16 in 7.0 mi Calm Calm - 0.01 in   Drizzle
7:35 PM 53.6 °F 53.6 °F 100% 30.16 in 5.0 mi Calm Calm - 0.03 in Rain Light Rain
7:55 PM 51.8 °F 51.8 °F 100% 30.15 in 4.0 mi Calm Calm - 0.05 in Rain Light Rain
8:15 PM 51.8 °F 51.8 °F 100% 30.15 in 7.0 mi Calm Calm - 0.01 in Rain Light Rain
8:35 PM 51.8 °F 51.8 °F 100% 30.14 in 5.0 mi Calm Calm - 0.02 in Rain Rain
8:55 PM 51.8 °F 51.8 °F 100% 30.13 in 5.0 mi Calm Calm - 0.04 in Rain Rain
9:15 PM 51.8 °F 51.8 °F 100% 30.13 in 5.0 mi Calm Calm - 0.01 in   Drizzle
9:35 PM 51.8 °F 51.8 °F 100% 30.12 in 7.0 mi Calm Calm - 0.02 in Rain Rain
9:55 PM 51.8 °F 51.8 °F 100% 30.13 in 5.0 mi Calm Calm - 0.02 in   Drizzle
10:15 PM 51.8 °F 51.8 °F 100% 30.12 in 7.0 mi Calm Calm - N/A   Drizzle
10:35 PM 51.8 °F 51.8 °F 100% 30.10 in 7.0 mi East 4.6 mph - 0.01 in Rain Rain
10:55 PM 51.8 °F 51.8 °F 100% 30.10 in 7.0 mi ESE 3.5 mph - 0.01 in   Light Drizzle
11:15 PM 51.8 °F 51.8 °F 100% 30.12 in 7.0 mi ESE 4.6 mph - N/A   Overcast
11:35 PM 51.8 °F 51.8 °F 100% 30.12 in 5.0 mi Calm Calm - N/A   Overcast
11:55 PM 51.8 °F 51.8 °F 100% 30.12 in 7.0 mi Calm Calm - N/A   Overcast